Location: Tamazert
(32.6352°N, 5.2072°W)
Time: 04:36:32
(UTC+00:00)

Vanguard 2 - Pass Details

Date: 04 October 2022
Orbit: 553 x 2933 km, 32.9° (Epoch: 26 November)

Event Time Altitude Azimuth Distance (km) Brightness Sun altitude
Rises 17:25:37 0° 284° (WNW) 5,926 13.5 6.7°
Reaches altitude 10° 17:29:09 10° 282° (WNW) 5,153 13.3 6.0°
Maximum altitude 17:45:20 71° 203° (SSW) 3,035 10.8 2.6°
Drops below altitude 10° 18:02:35 10° 123° (ESE) 5,437 11.4 -1.0°
Sets 18:06:25 0° 121° (ESE) 6,253 11.7 -1.8°
